Tracking 29489 objects as of 10-Sep-2024
HD Live streaming from Space Station
objects crossing your sky now

FENGYUN 1C DEB

Track FENGYUN 1C DEB now!
10-day predictions


NORAD ID: 31360
Int'l Code: 1999-025BRQ
Perigee: 800.2 km
Apogee: 964.7 km
Inclination: 98.0 °
Period: 102.5 minutes
Semi major axis: 7253 km
RCS: 0.0144 m2 (small)
Launch date: May 10, 1999
Source: People's Republic of China (PRC)
Launch site: Taiyaun Space Center, China (TSC)

Note: This is SATELLITE DEBRIS
Your satellite tracking list
Your tracking list is empty




NASA's NSSDC Master Catalog

Two Line Element Set (TLE):
1 31360U 99025BRQ 24245.98408963  .00010492  00000-0  61252-2 0  9996
2 31360  98.0182 148.7783 0113365 137.0100 223.9998 14.05362512566213
Source of the keplerian elements: AFSPC